Terminal Aerodrome Forecast
Issued by NWS Cheyenne, WY

Home | Current Version | Previous Version | Text Only | Print | Product List | Glossary On
Versions: 1 2 3 4 5 6 7 8 9 10 11 12 13 14 15 16 17 18 19 20 21 22 23 24 25 26 27 28 29 30 31 32 33
000
FTUS45 KCYS 222348 CCA
TAFCYS
TAF COR
KCYS 222348Z 2300/2324 32018G27KT P6SM SCT035 OVC050
      TEMPO 2300/2303 33022G35KT 1/2SM SHSN OVC015
     FM230500 33032G45KT 1SM -SN BLSN BKN020 OVC040
     FM231100 33030G42KT 4SM BLSN VCSH BKN030 OVC120
     FM231700 33033G45KT P6SM BKN100
     FM232000 34026G37KT P6SM SCT150=

USA.gov is the U.S. government's official web portal to all federal, state and local government web resources and services.